Location: Lawrence Hall of Science
(37.8785°N, 122.2415°W)
Time: 02:12:04
(UTC-07:00)

ARGOS - Visible Passes

Search period start: 02 September 2014 00:00
Search period end: 12 September 2014 00:00
Orbit: 821 x 835 km, 98.8° (Epoch: 31 August)

Date Brightness Start Highest point End Pass type
(mag) Time Alt. Az. Time Alt. Az. Time Alt. Az.
02 Sep 4.4 21:52:07 28° NE 21:52:07 28° NE 21:55:46 10° N visible
02 Sep 5.2 23:33:39 23° NW 23:33:39 23° NW 23:36:04 10° NW visible
03 Sep 4.7 21:33:35 20° NE 21:33:35 20° NE 21:36:50 10° NNE visible
03 Sep 4.8 23:15:07 30° NW 23:15:07 30° NW 23:17:59 10° NNW visible
04 Sep 5.0 21:15:03 14° ENE 21:15:03 14° ENE 21:17:32 10° NNE visible
04 Sep 4.5 22:56:35 36° NNW 22:56:35 36° NNW 22:59:43 10° NNW visible
05 Sep 4.3 22:38:03 38° N 22:38:03 38° N 22:41:19 10° N visible
06 Sep 4.3 22:19:32 34° NNE 22:19:32 34° NNE 22:22:47 10° N visible
07 Sep 5.9 00:01:04 12° NW 00:01:04 12° NW 00:01:43 10° NW visible
07 Sep 4.5 22:01:00 28° NNE 22:01:00 28° NNE 22:04:07 10° N visible
07 Sep 5.6 23:42:32 17° NW 23:42:32 17° NW 23:44:02 10° NW visible
08 Sep 4.7 21:42:28 22° NE 21:42:28 22° NE 21:45:17 10° NNE visible
08 Sep 5.3 23:24:00 22° NW 23:24:00 22° NW 23:26:02 10° NNW visible
09 Sep 5.0 21:23:57 16° NE 21:23:57 16° NE 21:26:10 10° NNE visible
09 Sep 5.0 23:05:29 26° NNW 23:05:29 26° NNW 23:07:51 10° NNW visible
10 Sep 5.3 21:05:25 11° NE 21:05:25 11° NE 21:06:23 10° NE visible
10 Sep 4.8 22:46:57 29° NNW 22:46:57 29° NNW 22:49:30 10° NNW visible
11 Sep 4.7 22:28:26 29° N 22:28:26 29° N 22:31:02 10° N visible
